Location: Praha
(50.0830°N, 14.4670°E)
Time: 00:47:48
(UTC+01:00)

ISS - Pass Details

Date: 28 November 2020
Orbit: 418 x 420 km, 51.6° (Epoch: 05 December)

Event Time Altitude Azimuth Distance (km) Brightness Sun altitude
Rises 16:34:32 0° 243° (WSW) 2,357 3.2 -5.0°
Reaches altitude 10° 16:36:38 10° 241° (WSW) 1,495 1.0 -5.3°
Maximum altitude 16:39:58 67° 158° (SSE) 457 -3.5 -5.7°
Drops below altitude 10° 16:43:19 10° 75° (ENE) 1,500 -1.6 -6.2°
Enters shadow 16:43:44 - 75° (ENE) 1,669 -1.4 -6.3°
